Weather History for KMRH - June, 2014

Change the Weather History Date:

Thursday, June 19, 2014

  Actual Average Record
Temperature  
Mean Temperature 82 °F -  
Max Temperature 86 °F 84 °F 94 °F (1984)
Min Temperature 79 °F 69 °F 52 °F (1959)
Cooling Degree Days 18    
Growing Degree Days 32 (Base 50)    
Moisture  
Dew Point 73 °F    
Average Humidity 74    
Maximum Humidity 84    
Minimum Humidity 67    
Precipitation  
Precipitation 0.00 in - - ()
Sea Level Pressure  
Sea Level Pressure 30.08 in    
Wind  
Wind Speed 16 mph (SW)    
Max Wind Speed 20 mph    
Max Gust Speed 26 mph    
Visibility 10 miles    
Events      
Averages and records for this station are not official NWS values.
T = Trace of Precipitation, MM = Missing Value Source: NWS Daily Summary

Daily Weather History Graph

Daily Weather History Graph

Search for Another Location

Airport or City:

Trip Planner

Search our weather history database for the weather conditions in past years. The results will help you decide how hot, cold, wet, or windy it might be!

Date:

Astronomy

Jun. 19, 2014 Rise Set
Actual Time 5:53 AM EDT 8:22 PM EDT
Civil Twilight 5:23 AM EDT 8:52 PM EDT
Nautical Twilight 4:47 AM EDT 9:28 PM EDT
Astronomical Twilight 4:06 AM EDT 10:09 PM EDT
Moon 12:40 AM EDT (6/19) 1:04 PM EDT (6/19)
Length of Visible Light 15h 28m
Length of Day
14h 29m
Waning Gibbous, 51% of the Moon is Illuminated
Jun 19
Waning Gibbous
Jun 19
Last Quarter
Jun 27
New
Jul 5
First Quarter
Jul 12
Full

Hourly Weather History & Observations

Time (EDT) Temp. Heat Index Dew Point Humidity Pressure Visibility Wind Dir Wind Speed Gust Speed Precip Events Conditions
12:58 AM 79.0 °F - 73.0 °F 82% 30.10 in 10.0 mi SW 16.1 mph - N/A   Clear
1:58 AM 79.0 °F - 73.9 °F 84% 30.09 in 10.0 mi WSW 12.7 mph - N/A   Clear
2:58 AM - - - N/A% 30.09 in - North - - N/A   Unknown
3:58 AM - - - N/A% 30.10 in - North - - N/A   Unknown
4:58 AM - - - N/A% 30.10 in - North - - N/A   Unknown
6:58 AM - - - N/A% 30.12 in - North - - N/A   Unknown
7:58 AM - - - N/A% 30.13 in - North - - N/A   Unknown
8:58 AM - - - N/A% 30.14 in - North - - N/A   Unknown
9:58 AM - - - N/A% 30.13 in - North - - N/A   Unknown
10:58 AM 84.9 °F 91.4 °F 73.0 °F 67% 30.12 in - WSW 15.0 mph - N/A   Clear
11:58 AM 84.0 °F 90.2 °F 73.0 °F 69% 30.11 in 10.0 mi SW 16.1 mph - N/A   Clear
12:58 PM 84.9 °F 91.4 °F 73.0 °F 67% 30.10 in 10.0 mi SW 16.1 mph - N/A   Clear
1:58 PM 84.9 °F 92.1 °F 73.9 °F 69% 30.08 in 10.0 mi SW 18.4 mph - N/A   Clear
2:58 PM 86.0 °F 95.1 °F 75.0 °F 70% 30.06 in 10.0 mi SSW 15.0 mph - N/A   Clear
3:58 PM 84.9 °F 91.4 °F 73.0 °F 67% 30.05 in 10.0 mi SSW 17.3 mph 25.3 mph N/A   Clear
4:58 PM 84.0 °F 89.6 °F 72.0 °F 67% 30.03 in 10.0 mi SSW 18.4 mph 26.5 mph N/A   Clear
5:58 PM 82.9 °F 88.8 °F 73.0 °F 72% 30.01 in 10.0 mi SW 17.3 mph 26.5 mph N/A   Clear
6:58 PM 82.0 °F 87.9 °F 73.9 °F 76% 30.02 in 9.0 mi SW 17.3 mph - N/A   Clear
7:58 PM 80.1 °F 84.5 °F 73.9 °F 81% 30.03 in 10.0 mi SW 17.3 mph - N/A   Clear
8:58 PM 80.1 °F 84.5 °F 73.9 °F 81% 30.00 in 10.0 mi SW 19.6 mph - N/A   Clear
9:58 PM 80.1 °F 84.5 °F 73.9 °F 81% 30.02 in 10.0 mi SW 18.4 mph - N/A   Clear
10:58 PM 80.1 °F 84.5 °F 73.9 °F 81% 30.03 in 10.0 mi SW 16.1 mph - N/A   Clear